Overview Statistics Trail Chart Weather Telemetry Raw packets
 

This is the latest recevied weather packets stored in our database for station/object EA3GKP-10. If no packets are shown the sender has not sent any weather packets the latest 10 day(s).

<< 1 2 3 4 5 6 >>
Time Temp. Humidity Pressure Rain* Wind** Luminosity Snow
1788552750 25° C - - 0 mm 2.24 m/s, 18° - -
1788552445 24.44° C - - 0 mm 0.89 m/s, 6° - -
1788552141 25° C - - 0 mm 0.89 m/s, 314° - -
1788551838 24.44° C - - 0 mm 1.79 m/s, 10° - -
1788551533 24.44° C - - 0 mm 3.13 m/s, 302° - -
1788551228 25° C - - 0 mm 2.24 m/s, 274° - -
1788550921 25° C - - 0 mm 1.79 m/s, 280° - -
1788550618 24.44° C - - 0 mm 1.79 m/s, 14° - -
1788550314 24.44° C - - 0 mm 0 m/s - -
1788550010 24.44° C - - 0 mm 0.45 m/s, 41° - -
1788549705 24.44° C - - 0 mm 1.34 m/s, 103° - -
1788549401 25.56° C - - 0 mm 2.24 m/s, 121° - -
1788549096 25.56° C - - 0 mm 0.89 m/s, 28° - -
1788548791 25.56° C - - 0 mm 1.79 m/s, 343° - -
1788548485 26.11° C - - 0 mm 3.58 m/s, 294° - -
1788548178 26.11° C - - 0 mm 2.24 m/s, 293° - -
1788547906 26.11° C - - 0 mm 2.24 m/s, 269° - -
1788547566 26.67° C - - 0 mm 3.13 m/s, 27° - -
1788547263 26.11° C - - 0 mm 0.89 m/s, 115° - -
1788546959 27.78° C - - 0 mm 0 m/s - -
1788546656 27.22° C - - 0 mm 0.89 m/s, 149° - -
1788546351 28.33° C - - 0 mm 0 m/s - -
1788546049 27.22° C - - 0 mm 0.45 m/s, 131° - -
1788545741 27.78° C - - 0 mm 0.89 m/s, 101° - -
1788545438 27.78° C - - 0 mm 0 m/s - -

* Rain latest hour (hover to see other rain measurements)
** Current wind speed in m/s (hover to see current wind gust speed)